Regional Weather Roundup
Issued by NWS Charleston, SC

Current Version | Previous Version | Graphics & Text | Print | Product List | Glossary On
Versions: 1 2 3 4 5 6 7 8 9 10 11 12 13 14 15 16 17 18 19 20 21 22 23 24 25 26 27 28 29 30 31 32 33 34 35 36 37 38 39 40 41 42 43 44 45 46 47 48 49 50
000
ASUS42 KCHS 251625
RWRCHS

REGIONAL WEATHER ROUNDUP
NATIONAL WEATHER SERVICE CHARLESTON SC
1200 PM EDT SAT OCT 25 2014

NOTE: "FAIR" INDICATES FEW OR NO CLOUDS BELOW 12,000 FEET WITH NO
SIGNIFICANT WEATHER AND/OR OBSTRUCTIONS TO VISIBILITY.

NOT ALL STATIONS ARE QUALITY CONTROLLED BY THE NATIONAL
WEATHER SERVICE. USE DATA WITH CAUTION...ESPECIALLY
DEWPOINT OBSERVATIONS.

SCZ027-030-031-034>040-042>050-251700-
...SOUTH CAROLINA...

CITY           SKY/WX    TMP DP  RH WIND       PRES   REMARKS
N CHARLESTON   SUNNY     71  48  43 VRB5      30.02S
WATERFRONT PRK   N/A     70 N/A N/A N10         N/A
FORT JOHNSON   NOT AVBL
JOHNS ISLAND   SUNNY     72  54  53 NW3       30.02S
PINOPOLIS      NOT AVBL
MONCKS CORNER  FAIR      68  54  60 NW3       30.03S
SUMMERVILLE    FAIR      70  48  46 N7        30.04S
BEAUFORT MCAS  SUNNY     71  47  42 N8        30.03S
BEAUFORT ARPT  FAIR      70  50  49 N3        30.02F
HILTON HEAD IS SUNNY     68  52  56 N7        30.04R
GEORGETOWN     NOT AVBL
WALTERBORO     SUNNY     70  43  37 NE6       30.03F
ORANGEBURG     SUNNY     68  44  42 N6        30.04F
BARNWELL       FAIR      70  48  46 CALM      30.05F
AIKEN          FAIR      68  50  52 CALM      30.07F
MANNING        FAIR      70  45  40 CALM      30.02F
KINGSTREE      NOT AVBL
COLUMBIA       SUNNY     68  41  37 CALM      30.04F
SUMTER         SUNNY     67  42  40 VRB1      30.01F
FLORENCE       SUNNY     67  41  38 N5        30.02F
MYRTLE BEACH   SUNNY     70  48  46 N6        30.01S
N MYRTLE BEACH SUNNY     70  45  40 NW5       29.99F

$$

GAZ063-065-086>088-099>101-113>116-118-119-134-136>141-150-251700-
...GEORGIA...

CITY           SKY/WX    TMP DP  RH WIND       PRES   REMARKS
SAVANNAH ARPT  SUNNY     73  48  41 N5        30.04S
HUNTER AAF     SUNNY     71  50  46 VRB5      30.01F
FORT STEWART   SUNNY     72  47  41 CALM      30.02F
STATESBORO     NOT AVBL
SYLVANIA       SUNNY     75  55  48 NW5       30.05F
CLAXTON        FAIR      73  48  40 CALM      30.04S
THOMSON        SUNNY     69  52  54 CALM      30.09F
AUGUSTA-BUSH   SUNNY     69  44  40 VRB6      30.05F
AUGUSTA-DANIEL SUNNY     67  43  41 CALM      30.06F
SWAINSBORO     FAIR      73  50  43 MISG      30.05F
VIDALIA        SUNNY     72  52  49 CALM      30.04F
ALMA           SUNNY     73  47  39 VRB7      30.03F
WAYCROSS       SUNNY     76  53  44 N5        30.03F
JESUP          FAIR      77  52  41 CALM      30.03S
BRUNSWICK      SUNNY     73  48  40 NW5       30.03F
SAINT SIMONS   SUNNY     69  51  52 NW7       30.03S

$$

SCZ027-028-034-036>038-045-046-048>050-GAZ119-141-251700-
...LAKE AND SUPPLEMENTAL COASTAL OBSERVATIONS...

STATION/POSITION TIME  TEMP    WIND        PRES    WAVE   SWELL
                       AIR SEA DIR/SP/G            HT/PER HT/PER/DIR
                 (UTC) (F)     (DEG/KT/KT) (MB)    (FT/S) (FT/S/D)
UPR LAKE MARION  NOT AVBL
WINYAH BAY       1600   67     330/  4     1016.0S
LAKE MURRAY      1500   63     120/  1/  2 1017.3F
ACE BASIN NERRS  1600   70     340/  3     1017.0S
FORT PULASKI     1600   67     350/  4/  6 1017.0F
SAPELO ISLAND    NOT AVBL

$$

ANZ835-935-AMZ111-154-330-350-352-354-374-450-454-472-251700-
...C-MAN AND BUOY OBSERVATIONS...

STATION/POSITION TIME  TEMP    WIND        PRES    WAVE   SWELL
                       AIR SEA DIR/SP/G            HT/PER HT/PER/DIR
                 (UTC) (F)     (DEG/KT/KT) (MB)    (FT/S) (FT/S/D)
FOLLY BEACH CMAN 1600   70     330/  3/  8 1016.9R
BUOY 41004       1600   68 78  360/  8/ 12 1015.6F   3/10   2/10
BUOY 41008       1600   67 74  350/ 12/ 16 1016.5R   2/ 3   2/ 90/11
5E ST. MARYS GA  1600      75                N/A     2/11   2/ 90/11
FRYING PAN BUOY  1600   67 74  340/  6/  8 1016.3F   2/10   2/ 90/10
BUOY 41025       1500   65     350/  8/ 10 1014.8F   3/ 9   3/ 40/ 9
CAPE LOOKOUT NC  1600   66      30/  5/  6 1014.9F
BUOY 41002       1531   72 77   30/ 12/ 16 1013.7F   4/ 9   3/ 20/ 9
BUOY 41010       1600   77 82   10/  8/ 12 1013.9R   3/ 6   3/100/ 6
BUOY 41012       NOT AVBL
ST AUGUSTINE FL  1600   69     350/ 14/ 16 1016.9F
CAPERS NEARSHORE NOT AVBL
FRIPP NEARSHORE  NOT AVBL


$$



USA.gov is the U.S. government's official web portal to all federal, state and local government web resources and services.